N5CSC Weather Reports


time (UTC)temp
C
wind
direction
speed
KPH
gust
KPH
rain 1hr
cm
rain 24hr
cm
rain mn
cm
humidity
%
barometer
mb
20260507004539 22 37 9.7 24.1 0.00 0.00 0.00 67 1008.9
20260507003036 22 16 12.9 22.5 0.00 0.00 0.00 66 1008.8
20260507001534 23 55 9.7 17.7 0.00 0.00 0.00 67 1008.6
20260507000035 23 34 9.7 22.5 0.00 0.00 0.00 66 1008.3
20260506234529 24 343 14.5 24.1 0.00 0.00 0.00 66 1008.1
20260506233028 25 55 11.3 24.1 0.00 0.00 0.00 66 1008.0
20260506231528 25 22 11.3 29.0 0.00 0.00 0.00 66 1007.6
20260506230026 26 360 14.5 29.0 0.00 0.00 0.00 66 1007.5
20260506224523 27 61 11.3 24.1 0.00 0.00 0.00 68 1007.1
20260506223023 27 67 11.3 24.1 0.00 0.00 0.00 68 1006.8
20260506221523 28 64 8.0 14.5 0.00 0.00 0.00 69 1006.7
20260506220030 28 61 8.0 19.3 0.00 0.00 0.00 69 1006.7
20260506214522 28 9 6.4 19.3 0.00 0.00 0.00 69 1006.8
20260506213028 28 44 9.7 22.5 0.00 0.00 0.00 68 1006.7
20260506211524 29 48 3.2 11.3 0.00 0.00 0.00 67 1006.6
20260506210025 29 34 3.2 9.7 0.00 0.00 0.00 68 1006.8
20260506204520 29 47 3.2 6.4 0.00 0.00 0.00 67 1006.9
20260506203024 29 9 0.0 6.4 0.00 0.00 0.00 67 1007.2
20260506201518 30 49 1.6 6.4 0.00 0.00 0.00 68 1007.2
20260506200017 30 111 1.6 8.0 0.00 0.00 0.00 69 1007.1
20260506194516 30 83 3.2 6.4 0.00 0.00 0.00 70 1007.1
20260506193017 29 42 1.6 9.7 0.00 0.00 0.00 71 1007.3
20260506191512 28 73 1.6 6.4 0.00 0.00 0.00 70 1007.4
20260506190010 28 33 1.6 6.4 0.00 0.00 0.00 72 1007.6
20260506184507 28 83 0.0 8.0 0.00 0.00 0.00 75 1007.8
20260506183005 28 5 6.4 9.7 0.00 0.00 0.00 74 1008.1
20260506181505 27 28 3.2 8.0 0.00 0.00 0.00 75 1008.2
20260506180003 27 13 4.8 8.0 0.00 0.00 0.00 76 1008.4
20260506174603 27 43 6.4 12.9 0.00 0.00 0.00 76 1008.3
20260506173112 27 47 4.8 12.9 0.00 0.00 0.00 77 1008.6
20260506171600 26 44 4.8 11.3 0.00 0.00 0.00 78 1008.9
20260506170054 26 46 3.2 8.0 0.00 0.00 0.00 80 1008.7
20260506164553 26 42 3.2 12.9 0.00 0.00 0.00 80 1008.7
20260506163052 25 32 3.2 9.7 0.00 0.00 0.00 80 1008.7
20260506161556 25 13 3.2 9.7 0.00 0.00 0.00 81 1008.7
20260506160046 25 24 3.2 8.0 0.00 0.00 0.00 81 1008.6
20260506154541 25 28 3.2 6.4 0.00 0.00 0.00 81 1008.4
20260506153039 25 32 1.6 6.4 0.00 0.00 0.00 81 1008.2
20260506151555 25 31 1.6 4.8 0.00 0.00 0.00 82 1008.0
20260506150036 25 31 0.0 6.4 0.00 0.00 0.00 82 1007.9
20260506144534 24 117 1.6 4.8 0.00 0.00 0.00 82 1007.5
20260506143043 24 116 3.2 4.8 0.00 0.00 0.00 82 1007.3
20260506141531 24 119 1.6 4.8 0.00 0.00 0.00 82 1007.3
20260506140033 24 121 0.0 4.8 0.00 0.00 0.00 82 1007.0
20260506134525 23 122 1.6 4.8 0.00 0.00 0.00 82 1006.6
20260506133025 23 134 1.6 4.8 0.00 0.00 0.00 82 1006.6
20260506131526 23 139 1.6 4.8 0.00 0.00 0.00 82 1006.6
20260506130023 23 179 0.0 3.2 0.00 0.00 0.00 82 1006.6
20260506124520 23 179 0.0 1.6 0.00 0.00 0.00 82 1006.7
20260506123020 23 179 0.0 1.6 0.00 0.00 0.00 82 1006.5
20260506121520 23 179 0.0 0.0 0.00 0.00 0.00 82 1006.4
20260506120020 23 179 0.0 1.6 0.00 0.00 0.00 82 1006.4
20260506114523 23 179 0.0 0.0 0.00 0.00 0.00 82 1006.3
20260506113019 23 179 0.0 1.6 0.00 0.00 0.00 81 1006.3
20260506111517 23 180 0.0 3.2 0.00 0.00 0.00 81 1006.3
20260506110017 23 180 0.0 0.0 0.00 0.00 0.00 81 1006.1
20260506104516 23 180 0.0 0.0 0.00 0.00 0.00 81 1006.0
20260506103016 23 180 0.0 0.0 0.00 0.00 0.00 81 1006.0
20260506101522 23 180 0.0 1.6 0.00 0.00 0.00 81 1006.0
20260506100012 23 180 0.0 4.8 0.00 0.00 0.00 81 1006.0
20260506094515 23 181 1.6 8.0 0.00 0.00 0.00 80 1005.9
20260506093009 24 169 1.6 6.4 0.00 0.00 0.00 80 1005.8
20260506091508 24 182 4.8 11.3 0.00 0.00 0.00 80 1005.8
20260506090008 24 184 3.2 9.7 0.00 0.00 0.00 80 1006.0
20260506084514 24 165 3.2 11.3 0.00 0.00 0.00 80 1006.1
20260506083003 24 176 3.2 6.4 0.00 0.00 0.00 79 1006.2
20260506081506 24 183 0.0 6.4 0.00 0.00 0.00 79 1006.1
20260506073105 25 173 3.2 9.7 0.00 0.00 0.00 79 1006.4
20260506071610 25 162 3.2 8.0 0.00 0.00 0.00 79 1006.3
20260506061550 25 153 6.4 12.9 0.00 0.00 0.00 79 1006.6
20260506044542 25 148 1.6 6.4 0.00 0.00 0.00 78 1006.5
20260506043042 25 154 3.2 12.9 0.00 0.00 0.00 78 1006.6
20260506041555 25 152 4.8 9.7 0.00 0.00 0.00 78 1006.4
20260506040041 25 130 3.2 11.3 0.00 0.00 0.00 77 1006.3
20260506034544 25 112 4.8 11.3 0.00 0.00 0.00 77 1006.0
20260506033040 25 142 3.2 8.0 0.00 0.00 0.00 76 1006.0
20260506031539 26 146 4.8 8.0 0.00 0.00 0.00 76 1005.8
20260506030038 26 151 3.2 8.0 0.00 0.00 0.00 75 1005.6
20260506024540 26 120 3.2 8.0 0.00 0.00 0.00 75 1005.5
20260506023038 26 116 4.8 8.0 0.00 0.00 0.00 74 1005.3
20260506021536 26 113 6.4 11.3 0.00 0.00 0.00 73 1004.7
20260506020036 27 113 3.2 9.7 0.00 0.00 0.00 73 1004.5
20260506014545 27 111 6.4 11.3 0.00 0.00 0.00 72 1004.5
20260506013038 27 117 3.2 8.0 0.00 0.00 0.00 71 1004.4
20260506011539 27 109 3.2 11.3 0.00 0.00 0.00 70 1004.0
20260506010034 28 115 3.2 11.3 0.00 0.00 0.00 68 1003.7